Time,TemperatureF,DewpointF,PressureIn,WindDirection,WindDirectionDegrees,WindSpeedMPH,WindSpeedGustMPH,Humidity,HourlyPrecipIn,Conditions,Clouds,dailyrainin,SoftwareType,DateUTC
2013-05-29 00:05:00,61.2,59.5,29.68,NW,304,0.0,2.0,94,0.00,,,0.36,Wunderground v.1.13,2013-05-29 05:05:00,
2013-05-29 00:15:00,61.0,59.6,29.69,NW,304,0.0,2.0,95,0.00,,,0.36,Wunderground v.1.13,2013-05-29 05:15:00,
2013-05-29 00:20:00,60.9,59.5,29.69,NW,304,0.0,2.0,95,0.00,,,0.36,Wunderground v.1.13,2013-05-29 05:20:00,
2013-05-29 00:30:00,60.9,59.5,29.68,NW,304,0.0,2.0,95,0.00,,,0.36,Wunderground v.1.13,2013-05-29 05:30:00,
2013-05-29 00:35:00,60.7,59.3,29.68,NW,304,0.0,2.0,95,0.00,,,0.36,Wunderground v.1.13,2013-05-29 05:35:00,
2013-05-29 00:45:00,60.7,59.3,29.68,NW,304,0.0,2.0,95,0.00,,,0.36,Wunderground v.1.13,2013-05-29 05:45:00,
2013-05-29 00:55:00,60.7,59.3,29.68,NW,304,0.0,2.0,95,0.00,,,0.36,Wunderground v.1.13,2013-05-29 05:55:00,
2013-05-29 01:05:00,60.9,59.5,29.68,NW,304,0.0,0.0,95,0.00,,,0.36,Wunderground v.1.13,2013-05-29 06:05:00,
2013-05-29 01:15:00,61.0,59.6,29.68,NW,304,0.0,0.0,95,0.00,,,0.36,Wunderground v.1.13,2013-05-29 06:15:00,
2013-05-29 01:20:00,61.0,59.6,29.68,NW,304,0.0,0.0,95,0.00,,,0.36,Wunderground v.1.13,2013-05-29 06:20:00,
2013-05-29 01:30:00,60.9,59.8,29.68,NW,304,0.0,0.0,96,0.00,,,0.36,Wunderground v.1.13,2013-05-29 06:30:00,
2013-05-29 01:35:00,60.9,59.8,29.68,NW,304,0.0,0.0,96,0.00,,,0.36,Wunderground v.1.13,2013-05-29 06:35:00,
2013-05-29 01:45:00,61.0,59.9,29.69,NW,304,0.0,0.0,96,0.00,,,0.36,Wunderground v.1.13,2013-05-29 06:45:00,
2013-05-29 01:50:00,61.0,59.9,29.69,NW,304,0.0,0.0,96,0.00,,,0.36,Wunderground v.1.13,2013-05-29 06:50:00,
2013-05-29 01:55:00,61.2,60.1,29.70,NW,304,0.0,0.0,96,0.00,,,0.36,Wunderground v.1.13,2013-05-29 06:55:00,
2013-05-29 02:00:00,61.2,60.1,29.70,NW,304,0.0,0.0,96,0.00,,,0.36,Wunderground v.1.13,2013-05-29 07:00:00,
2013-05-29 02:05:00,61.2,60.1,29.70,NW,304,0.0,0.0,96,0.00,,,0.36,Wunderground v.1.13,2013-05-29 07:05:00,
2013-05-29 02:15:00,61.3,60.2,29.70,NW,304,0.0,0.0,96,0.00,,,0.36,Wunderground v.1.13,2013-05-29 07:15:00,
2013-05-29 02:20:00,61.3,60.2,29.70,NW,304,0.0,0.0,96,0.00,,,0.36,Wunderground v.1.13,2013-05-29 07:20:00,
2013-05-29 02:30:00,61.5,60.3,29.70,NW,304,0.0,0.0,96,0.00,,,0.36,Wunderground v.1.13,2013-05-29 07:30:00,
2013-05-29 02:40:00,61.6,60.7,29.69,NW,304,0.0,0.0,97,0.00,,,0.36,Wunderground v.1.13,2013-05-29 07:40:00,
2013-05-29 02:45:00,61.6,60.7,29.69,NW,304,0.0,0.0,97,0.00,,,0.36,Wunderground v.1.13,2013-05-29 07:45:00,
2013-05-29 02:50:00,61.8,60.9,29.69,NW,304,0.0,4.0,97,0.00,,,0.36,Wunderground v.1.13,2013-05-29 07:50:00,
2013-05-29 02:55:00,61.8,60.9,29.69,NW,304,0.0,0.0,97,0.00,,,0.36,Wunderground v.1.13,2013-05-29 07:55:00,
2013-05-29 03:05:00,61.5,60.6,29.69,NW,304,0.0,1.0,97,0.00,,,0.36,Wunderground v.1.13,2013-05-29 08:05:00,
2013-05-29 03:15:00,61.3,60.4,29.69,NW,304,0.0,1.0,97,0.00,,,0.36,Wunderground v.1.13,2013-05-29 08:15:00,
2013-05-29 03:20:00,61.2,60.3,29.69,NW,304,0.0,1.0,97,0.00,,,0.36,Wunderground v.1.13,2013-05-29 08:20:00,
2013-05-29 03:30:00,61.0,60.1,29.68,NW,304,0.0,1.0,97,0.00,,,0.36,Wunderground v.1.13,2013-05-29 08:30:00,
2013-05-29 03:35:00,61.0,60.1,29.68,NW,304,0.0,4.0,97,0.00,,,0.36,Wunderground v.1.13,2013-05-29 08:35:00,
2013-05-29 03:45:00,61.0,60.1,29.69,NW,304,0.0,4.0,97,0.00,,,0.36,Wunderground v.1.13,2013-05-29 08:45:00,
2013-05-29 03:50:00,61.2,60.3,29.69,NW,304,0.0,4.0,97,0.00,,,0.36,Wunderground v.1.13,2013-05-29 08:50:00,
2013-05-29 03:55:00,61.2,60.3,29.70,NW,304,0.0,4.0,97,0.00,,,0.36,Wunderground v.1.13,2013-05-29 08:55:00,
2013-05-29 04:05:00,61.3,60.4,29.70,NW,304,0.0,4.0,97,0.00,,,0.36,Wunderground v.1.13,2013-05-29 09:05:00,
2013-05-29 04:15:00,61.5,60.6,29.71,NW,304,0.0,4.0,97,0.00,,,0.37,Wunderground v.1.13,2013-05-29 09:15:00,
2013-05-29 04:25:00,61.6,60.7,29.71,NW,304,0.0,4.0,97,0.00,,,0.37,Wunderground v.1.13,2013-05-29 09:25:00,
2013-05-29 04:35:00,61.6,60.7,29.71,NW,304,0.0,0.0,97,0.00,,,0.37,Wunderground v.1.13,2013-05-29 09:35:00,
2013-05-29 04:40:00,61.8,60.9,29.73,NW,304,0.0,0.0,97,0.00,,,0.37,Wunderground v.1.13,2013-05-29 09:40:00,
2013-05-29 04:50:00,62.0,61.4,29.73,NW,304,0.0,0.0,98,0.00,,,0.37,Wunderground v.1.13,2013-05-29 09:50:00,
2013-05-29 04:55:00,62.0,61.4,29.74,NW,304,0.0,0.0,98,0.00,,,0.37,Wunderground v.1.13,2013-05-29 09:55:00,
2013-05-29 05:05:00,62.0,61.1,29.74,NW,304,0.0,0.0,97,0.00,,,0.37,Wunderground v.1.13,2013-05-29 10:05:00,
2013-05-29 05:15:00,61.8,60.9,29.74,NW,304,0.0,0.0,97,0.00,,,0.37,Wunderground v.1.13,2013-05-29 10:15:00,
2013-05-29 05:25:00,61.8,61.2,29.74,NW,304,0.0,0.0,98,0.00,,,0.37,Wunderground v.1.13,2013-05-29 10:25:00,
2013-05-29 05:35:00,61.5,60.9,29.74,NW,304,0.0,0.0,98,0.00,,,0.37,Wunderground v.1.13,2013-05-29 10:35:00,
2013-05-29 05:45:00,61.5,60.9,29.74,NW,304,0.0,0.0,98,0.00,,,0.37,Wunderground v.1.13,2013-05-29 10:45:00,
2013-05-29 05:50:00,61.5,60.9,29.74,NW,304,0.0,0.0,98,0.00,,,0.37,Wunderground v.1.13,2013-05-29 10:50:00,
2013-05-29 05:55:00,61.5,60.9,29.76,NW,304,0.0,0.0,98,0.00,,,0.37,Wunderground v.1.13,2013-05-29 10:55:00,
2013-05-29 06:00:00,61.5,60.9,29.76,NW,304,0.0,0.0,98,0.00,,,0.37,Wunderground v.1.13,2013-05-29 11:00:00,
2013-05-29 06:05:00,61.5,60.9,29.76,NW,304,0.0,0.0,98,0.00,,,0.37,Wunderground v.1.13,2013-05-29 11:05:00,
2013-05-29 06:15:00,61.3,60.7,29.76,NW,304,0.0,0.0,98,0.00,,,0.00,Wunderground v.1.13,2013-05-29 11:15:00,
2013-05-29 06:25:00,61.3,60.7,29.76,NW,304,0.0,0.0,98,0.00,,,0.00,Wunderground v.1.13,2013-05-29 11:25:00,
2013-05-29 06:30:00,61.5,60.9,29.76,NW,304,0.0,0.0,98,0.00,,,0.00,Wunderground v.1.13,2013-05-29 11:30:00,
2013-05-29 06:40:00,61.6,61.0,29.77,NW,304,0.0,0.0,98,0.00,,,0.00,Wunderground v.1.13,2013-05-29 11:40:00,
2013-05-29 06:45:00,61.6,61.0,29.77,NW,304,0.0,0.0,98,0.00,,,0.00,Wunderground v.1.13,2013-05-29 11:45:00,
2013-05-29 06:50:00,61.8,61.2,29.77,NW,304,0.0,0.0,98,0.00,,,0.00,Wunderground v.1.13,2013-05-29 11:50:00,
2013-05-29 07:00:00,62.3,61.7,29.78,NW,304,0.0,0.0,98,0.00,,,0.00,Wunderground v.1.13,2013-05-29 12:00:00,
2013-05-29 07:05:00,62.4,61.8,29.78,NW,304,0.0,0.0,98,0.00,,,0.00,Wunderground v.1.13,2013-05-29 12:05:00,
2013-05-29 07:15:00,62.9,62.3,29.77,NW,304,0.0,0.0,98,0.00,,,0.00,Wunderground v.1.13,2013-05-29 12:15:00,
2013-05-29 07:20:00,63.2,62.6,29.77,NW,304,0.0,0.0,98,0.00,,,0.00,Wunderground v.1.13,2013-05-29 12:20:00,
2013-05-29 07:30:00,63.5,62.9,29.78,NW,304,0.0,0.0,98,0.00,,,0.00,Wunderground v.1.13,2013-05-29 12:30:00,
2013-05-29 07:35:00,63.7,63.1,29.78,NW,304,0.0,0.0,98,0.00,,,0.00,Wunderground v.1.13,2013-05-29 12:35:00,
2013-05-29 07:45:00,63.7,63.1,29.78,NW,304,0.0,0.0,98,0.00,,,0.00,Wunderground v.1.13,2013-05-29 12:45:00,
2013-05-29 07:55:00,63.9,63.3,29.77,NW,304,0.0,0.0,98,0.00,,,0.00,Wunderground v.1.13,2013-05-29 12:55:00,
2013-05-29 08:05:00,64.2,63.6,29.77,NW,304,0.0,0.0,98,0.00,,,0.00,Wunderground v.1.13,2013-05-29 13:05:00,
2013-05-29 08:15:00,64.3,63.7,29.78,NW,304,0.0,0.0,98,0.00,,,0.00,Wunderground v.1.13,2013-05-29 13:15:00,
2013-05-29 08:20:00,64.5,63.9,29.78,NW,304,0.0,0.0,98,0.00,,,0.00,Wunderground v.1.13,2013-05-29 13:20:00,
2013-05-29 08:30:00,64.7,64.1,29.79,WNW,301,1.0,2.0,98,0.00,,,0.00,Wunderground v.1.13,2013-05-29 13:30:00,
2013-05-29 08:40:00,65.2,64.6,29.79,SSW,209,0.0,2.0,98,0.00,,,0.00,Wunderground v.1.13,2013-05-29 13:40:00,
2013-05-29 08:50:00,65.6,65.0,29.79,SSW,196,2.0,2.0,98,0.00,,,0.00,Wunderground v.1.13,2013-05-29 13:50:00,
2013-05-29 09:00:00,66.4,65.8,29.80,SSW,212,2.0,7.0,98,0.00,,,0.00,Wunderground v.1.13,2013-05-29 14:00:00,
2013-05-29 09:05:00,66.6,65.7,29.80,SSW,197,4.0,6.0,97,0.00,,,0.00,Wunderground v.1.13,2013-05-29 14:05:00,
2013-05-29 09:15:00,67.6,66.4,29.81,SSE,166,3.0,3.0,96,0.00,,,0.00,Wunderground v.1.13,2013-05-29 14:15:00,
2013-05-29 09:25:00,68.6,65.9,29.81,SSW,201,4.0,6.0,91,0.00,,,0.00,Wunderground v.1.13,2013-05-29 14:25:00,
2013-05-29 09:30:00,69.4,65.0,29.81,SW,232,6.0,6.0,86,0.00,,,0.00,Wunderground v.1.13,2013-05-29 14:30:00,
2013-05-29 09:35:00,70.3,63.5,29.81,SW,230,5.0,5.0,79,0.00,,,0.00,Wunderground v.1.13,2013-05-29 14:35:00,
2013-05-29 09:45:00,72.3,63.5,29.80,SSE,148,2.0,2.0,74,0.00,,,0.00,Wunderground v.1.13,2013-05-29 14:45:00,
2013-05-29 09:55:00,73.0,62.2,29.80,SW,219,3.0,13.0,69,0.00,,,0.00,Wunderground v.1.13,2013-05-29 14:55:00,
2013-05-29 10:00:00,73.2,62.8,29.80,WSW,240,3.0,3.0,70,0.00,,,0.00,Wunderground v.1.13,2013-05-29 15:00:00,
2013-05-29 10:05:00,73.5,62.7,29.80,SW,219,3.0,13.0,69,0.00,,,0.00,Wunderground v.1.13,2013-05-29 15:05:00,
2013-05-29 10:15:00,73.9,63.1,29.80,SW,234,4.0,4.0,69,0.00,,,0.00,Wunderground v.1.13,2013-05-29 15:15:00,
2013-05-29 10:20:00,74.2,62.1,29.80,SW,223,2.0,13.0,66,0.00,,,0.00,Wunderground v.1.13,2013-05-29 15:20:00,
2013-05-29 10:25:00,74.2,62.1,29.80,South,183,3.0,13.0,66,0.00,,,0.00,Wunderground v.1.13,2013-05-29 15:25:00,
2013-05-29 10:35:00,74.7,62.1,29.80,SW,222,3.0,3.0,65,0.00,,,0.00,Wunderground v.1.13,2013-05-29 15:35:00,
2013-05-29 10:45:00,75.1,63.0,29.80,SW,227,3.0,3.0,66,0.00,,,0.00,Wunderground v.1.13,2013-05-29 15:45:00,
2013-05-29 10:55:00,75.4,61.5,29.81,South,184,3.0,3.0,62,0.00,,,0.00,Wunderground v.1.13,2013-05-29 15:55:00,
2013-05-29 11:05:00,75.4,61.9,29.81,South,170,3.0,12.0,63,0.00,,,0.00,Wunderground v.1.13,2013-05-29 16:05:00,
2013-05-29 11:15:00,75.8,62.8,29.81,SSE,156,1.0,12.0,64,0.00,,,0.00,Wunderground v.1.13,2013-05-29 16:15:00,
2013-05-29 11:25:00,75.6,61.7,29.81,West,272,2.0,2.0,62,0.00,,,0.00,Wunderground v.1.13,2013-05-29 16:25:00,
2013-05-29 11:35:00,76.5,62.5,29.81,South,183,1.0,11.0,62,0.00,,,0.00,Wunderground v.1.13,2013-05-29 16:35:00,
2013-05-29 11:45:00,77.0,63.0,29.80,SSE,163,3.0,11.0,62,0.00,,,0.00,Wunderground v.1.13,2013-05-29 16:45:00,
2013-05-29 11:50:00,76.7,61.8,29.80,SSE,163,3.0,3.0,60,0.00,,,0.00,Wunderground v.1.13,2013-05-29 16:50:00,
2013-05-29 12:00:00,77.0,61.6,29.80,SSW,212,2.0,11.0,59,0.00,,,0.00,Wunderground v.1.13,2013-05-29 17:00:00,
2013-05-29 12:05:00,77.0,61.6,29.80,South,182,3.0,8.0,59,0.00,,,0.00,Wunderground v.1.13,2013-05-29 17:05:00,
2013-05-29 12:15:00,77.6,63.1,29.80,SSE,166,2.0,2.0,61,0.00,,,0.00,Wunderground v.1.13,2013-05-29 17:15:00,
2013-05-29 12:20:00,77.6,61.2,29.80,SSW,206,2.0,11.0,57,0.00,,,0.00,Wunderground v.1.13,2013-05-29 17:20:00,
2013-05-29 12:30:00,78.1,62.6,29.79,SSE,147,2.0,2.0,59,0.00,,,0.00,Wunderground v.1.13,2013-05-29 17:30:00,
2013-05-29 12:40:00,77.4,60.5,29.79,South,190,4.0,11.0,56,0.00,,,0.00,Wunderground v.1.13,2013-05-29 17:40:00,
2013-05-29 12:50:00,77.4,61.9,29.79,SSE,160,3.0,11.0,59,0.00,,,0.00,Wunderground v.1.13,2013-05-29 17:50:00,
2013-05-29 13:00:00,78.1,61.6,29.79,SE,144,3.0,11.0,57,0.00,,,0.00,Wunderground v.1.13,2013-05-29 18:00:00,
2013-05-29 13:05:00,78.1,61.6,29.79,South,169,3.0,3.0,57,0.00,,,0.00,Wunderground v.1.13,2013-05-29 18:05:00,
2013-05-29 13:15:00,78.3,61.8,29.79,SSW,205,3.0,3.0,57,0.00,,,0.00,Wunderground v.1.13,2013-05-29 18:15:00,
2013-05-29 13:20:00,78.6,62.1,29.79,SSW,199,4.0,11.0,57,0.00,,,0.00,Wunderground v.1.13,2013-05-29 18:20:00,
2013-05-29 13:25:00,78.6,62.1,29.78,South,189,4.0,11.0,57,0.00,,,0.00,Wunderground v.1.13,2013-05-29 18:25:00,
2013-05-29 13:35:00,78.8,61.8,29.78,SE,144,4.0,4.0,56,0.00,,,0.00,Wunderground v.1.13,2013-05-29 18:35:00,
2013-05-29 13:45:00,79.4,61.8,29.78,SE,128,3.0,10.0,55,0.00,,,0.00,Wunderground v.1.13,2013-05-29 18:45:00,
2013-05-29 13:50:00,79.2,61.6,29.78,SSW,207,4.0,10.0,55,0.00,,,0.00,Wunderground v.1.13,2013-05-29 18:50:00,
2013-05-29 13:55:00,79.4,61.8,29.79,SW,221,5.0,10.0,55,0.00,,,0.00,Wunderground v.1.13,2013-05-29 18:55:00,
2013-05-29 14:05:00,79.6,62.5,29.79,West,277,5.0,12.0,56,0.00,,,0.00,Wunderground v.1.13,2013-05-29 19:05:00,
2013-05-29 14:15:00,79.4,61.8,29.79,South,179,5.0,13.0,55,0.00,,,0.00,Wunderground v.1.13,2013-05-29 19:15:00,
2013-05-29 14:25:00,79.6,62.5,29.79,South,189,4.0,4.0,56,0.00,,,0.00,Wunderground v.1.13,2013-05-29 19:25:00,
2013-05-29 14:35:00,80.1,63.0,29.79,SE,139,4.0,4.0,56,0.00,,,0.00,Wunderground v.1.13,2013-05-29 19:35:00,
2013-05-29 14:40:00,80.3,62.1,29.79,South,183,4.0,16.0,54,0.00,,,0.00,Wunderground v.1.13,2013-05-29 19:40:00,
2013-05-29 14:50:00,80.3,63.2,29.79,SSE,167,5.0,16.0,56,0.00,,,0.00,Wunderground v.1.13,2013-05-29 19:50:00,
2013-05-29 14:55:00,80.1,63.5,29.79,SSE,167,5.0,5.0,57,0.00,,,0.00,Wunderground v.1.13,2013-05-29 19:55:00,
2013-05-29 15:00:00,80.1,63.0,29.79,SSW,213,4.0,4.0,56,0.00,,,0.00,Wunderground v.1.13,2013-05-29 20:00:00,
2013-05-29 15:05:00,80.1,64.0,29.79,SSE,167,3.0,15.0,58,0.00,,,0.00,Wunderground v.1.13,2013-05-29 20:05:00,
2013-05-29 15:15:00,80.9,64.7,29.78,South,178,2.0,2.0,58,0.00,,,0.00,Wunderground v.1.13,2013-05-29 20:15:00,
2013-05-29 15:25:00,80.7,63.0,29.77,South,191,2.0,2.0,55,0.00,,,0.00,Wunderground v.1.13,2013-05-29 20:25:00,
2013-05-29 15:30:00,80.7,63.5,29.77,ESE,123,2.0,15.0,56,0.00,,,0.00,Wunderground v.1.13,2013-05-29 20:30:00,
2013-05-29 15:35:00,80.7,64.1,29.77,SE,132,1.0,15.0,57,0.00,,,0.00,Wunderground v.1.13,2013-05-29 20:35:00,
2013-05-29 15:45:00,80.9,63.7,29.76,SSE,157,2.0,2.0,56,0.00,,,0.00,Wunderground v.1.13,2013-05-29 20:45:00,
2013-05-29 15:55:00,80.9,64.7,29.76,South,171,3.0,3.0,58,0.00,,,0.00,Wunderground v.1.13,2013-05-29 20:55:00,
2013-05-29 16:00:00,81.2,65.5,29.76,SE,144,3.0,3.0,59,0.00,,,0.00,Wunderground v.1.13,2013-05-29 21:00:00,
2013-05-29 16:05:00,81.1,64.4,29.76,SSE,161,3.0,11.0,57,0.00,,,0.00,Wunderground v.1.13,2013-05-29 21:05:00,
2013-05-29 16:15:00,81.2,65.5,29.75,ESE,111,3.0,11.0,59,0.00,,,0.00,Wunderground v.1.13,2013-05-29 21:15:00,
2013-05-29 16:25:00,80.9,65.2,29.75,SW,220,3.0,11.0,59,0.00,,,0.00,Wunderground v.1.13,2013-05-29 21:25:00,
2013-05-29 16:30:00,80.5,65.3,29.75,South,183,3.0,11.0,60,0.00,,,0.00,Wunderground v.1.13,2013-05-29 21:30:00,
2013-05-29 16:40:00,80.5,65.3,29.75,SW,228,4.0,12.0,60,0.00,,,0.00,Wunderground v.1.13,2013-05-29 21:40:00,
2013-05-29 16:45:00,80.3,65.1,29.75,South,174,4.0,12.0,60,0.00,,,0.00,Wunderground v.1.13,2013-05-29 21:45:00,
2013-05-29 16:55:00,79.8,65.2,29.75,ESE,122,3.0,12.0,61,0.00,,,0.00,Wunderground v.1.13,2013-05-29 21:55:00,
2013-05-29 17:05:00,80.5,65.3,29.75,SSE,159,2.0,2.0,60,0.00,,,0.00,Wunderground v.1.13,2013-05-29 22:05:00,
2013-05-29 17:15:00,80.1,65.0,29.74,East,94,4.0,4.0,60,0.00,,,0.00,Wunderground v.1.13,2013-05-29 22:15:00,
2013-05-29 17:20:00,80.3,65.1,29.74,SE,144,3.0,3.0,60,0.00,,,0.00,Wunderground v.1.13,2013-05-29 22:20:00,
2013-05-29 17:30:00,80.9,64.7,29.73,SSE,161,3.0,13.0,58,0.00,,,0.00,Wunderground v.1.13,2013-05-29 22:30:00,
2013-05-29 17:35:00,80.9,64.7,29.73,SSE,152,3.0,14.0,58,0.00,,,0.00,Wunderground v.1.13,2013-05-29 22:35:00,
2013-05-29 17:45:00,81.2,65.5,29.72,SSE,158,2.0,2.0,59,0.00,,,0.00,Wunderground v.1.13,2013-05-29 22:45:00,
2013-05-29 17:50:00,80.9,64.7,29.72,SSE,155,2.0,14.0,58,0.00,,,0.00,Wunderground v.1.13,2013-05-29 22:50:00,
2013-05-29 17:55:00,80.7,65.0,29.72,ESE,121,4.0,4.0,59,0.00,,,0.00,Wunderground v.1.13,2013-05-29 22:55:00,
2013-05-29 18:05:00,80.7,65.5,29.72,South,176,3.0,3.0,60,0.00,,,0.00,Wunderground v.1.13,2013-05-29 23:05:00,
2013-05-29 18:15:00,80.5,65.3,29.72,SE,132,3.0,3.0,60,0.00,,,0.00,Wunderground v.1.13,2013-05-29 23:15:00,
2013-05-29 18:20:00,80.5,65.8,29.72,South,182,4.0,15.0,61,0.00,,,0.00,Wunderground v.1.13,2013-05-29 23:20:00,
2013-05-29 18:30:00,80.1,65.4,29.73,SSE,163,2.0,2.0,61,0.00,,,0.00,Wunderground v.1.13,2013-05-29 23:30:00,
2013-05-29 18:35:00,79.9,65.2,29.73,ESE,123,1.0,1.0,61,0.00,,,0.00,Wunderground v.1.13,2013-05-29 23:35:00,
2013-05-29 18:45:00,79.8,65.6,29.74,SE,144,2.0,2.0,62,0.00,,,0.00,Wunderground v.1.13,2013-05-29 23:45:00,
2013-05-29 18:50:00,79.4,65.7,29.74,SSE,158,2.0,2.0,63,0.00,,,0.00,Wunderground v.1.13,2013-05-29 23:50:00,
2013-05-29 18:55:00,79.2,66.0,29.73,SSE,165,1.0,1.0,64,0.00,,,0.00,Wunderground v.1.13,2013-05-29 23:55:00,
2013-05-29 19:00:00,78.8,66.0,29.73,SSE,155,1.0,12.0,65,0.00,,,0.00,Wunderground v.1.13,2013-05-30 00:00:00,
2013-05-29 19:05:00,78.8,66.0,29.73,SE,132,1.0,12.0,65,0.00,,,0.00,Wunderground v.1.13,2013-05-30 00:05:00,
2013-05-29 19:15:00,78.5,65.8,29.73,SSE,154,1.0,12.0,65,0.00,,,0.00,Wunderground v.1.13,2013-05-30 00:15:00,
2013-05-29 19:20:00,78.5,65.8,29.73,South,177,1.0,1.0,65,0.00,,,0.00,Wunderground v.1.13,2013-05-30 00:20:00,
2013-05-29 19:30:00,78.3,66.0,29.75,SE,140,1.0,1.0,66,0.00,,,0.00,Wunderground v.1.13,2013-05-30 00:30:00,
2013-05-29 19:40:00,78.1,66.2,29.75,SE,146,1.0,1.0,67,0.00,,,0.00,Wunderground v.1.13,2013-05-30 00:40:00,
2013-05-29 19:50:00,77.7,66.3,29.75,SSE,152,0.0,10.0,68,0.00,,,0.00,Wunderground v.1.13,2013-05-30 00:50:00,
2013-05-29 19:55:00,77.6,66.6,29.75,SSE,152,0.0,10.0,69,0.00,,,0.00,Wunderground v.1.13,2013-05-30 00:55:00,
2013-05-29 20:05:00,77.2,66.7,29.75,SSE,152,0.0,10.0,70,0.00,,,0.00,Wunderground v.1.13,2013-05-30 01:05:00,
2013-05-29 20:15:00,76.7,66.6,29.75,SSE,152,0.0,10.0,71,0.00,,,0.00,Wunderground v.1.13,2013-05-30 01:15:00,
2013-05-29 20:25:00,76.3,66.6,29.75,SSE,152,0.0,10.0,72,0.00,,,0.00,Wunderground v.1.13,2013-05-30 01:25:00,
2013-05-29 20:30:00,76.0,66.3,29.75,SSE,152,0.0,10.0,72,0.00,,,0.00,Wunderground v.1.13,2013-05-30 01:30:00,
2013-05-29 20:35:00,75.8,66.1,29.75,ESE,118,0.0,5.0,72,0.00,,,0.00,Wunderground v.1.13,2013-05-30 01:35:00,
2013-05-29 20:45:00,75.1,65.9,29.75,SE,136,0.0,5.0,73,0.00,,,0.00,Wunderground v.1.13,2013-05-30 01:45:00,
2013-05-29 20:50:00,74.7,65.9,29.75,SE,134,0.0,5.0,74,0.00,,,0.00,Wunderground v.1.13,2013-05-30 01:50:00,
2013-05-29 21:00:00,74.2,65.4,29.75,SE,133,0.0,5.0,74,0.00,,,0.00,Wunderground v.1.13,2013-05-30 02:00:00,
2013-05-29 21:05:00,74.0,65.6,29.75,SE,133,0.0,5.0,75,0.00,,,0.00,Wunderground v.1.13,2013-05-30 02:05:00,
2013-05-29 21:15:00,73.5,65.8,29.75,SE,133,0.0,5.0,77,0.00,,,0.00,Wunderground v.1.13,2013-05-30 02:15:00,
2013-05-29 21:20:00,73.2,65.6,29.75,SE,132,0.0,5.0,77,0.00,,,0.00,Wunderground v.1.13,2013-05-30 02:20:00,
2013-05-29 21:25:00,73.0,65.7,29.74,SE,132,0.0,5.0,78,0.00,,,0.00,Wunderground v.1.13,2013-05-30 02:25:00,
2013-05-29 21:35:00,72.8,65.5,29.74,SE,132,0.0,7.0,78,0.00,,,0.00,Wunderground v.1.13,2013-05-30 02:35:00,
2013-05-29 21:45:00,72.1,62.2,29.77,West,275,3.0,3.0,71,0.00,,,0.00,Wunderground v.1.13,2013-05-30 02:45:00,
2013-05-29 21:50:00,71.6,61.3,29.77,NW,310,2.0,7.0,70,0.00,,,0.00,Wunderground v.1.13,2013-05-30 02:50:00,
2013-05-29 22:00:00,70.8,60.5,29.77,WNW,282,3.0,7.0,70,0.00,,,0.00,Wunderground v.1.13,2013-05-30 03:00:00,
2013-05-29 22:05:00,70.3,60.1,29.77,NNW,348,2.0,2.0,70,0.00,,,0.00,Wunderground v.1.13,2013-05-30 03:05:00,
2013-05-29 22:15:00,69.8,60.0,29.79,WNW,300,2.0,7.0,71,0.00,,,0.00,Wunderground v.1.13,2013-05-30 03:15:00,
2013-05-29 22:20:00,69.6,60.2,29.79,WNW,293,3.0,3.0,72,0.00,,,0.00,Wunderground v.1.13,2013-05-30 03:20:00,
2013-05-29 22:25:00,69.4,60.0,29.78,North,5,3.0,3.0,72,0.00,,,0.00,Wunderground v.1.13,2013-05-30 03:25:00,
2013-05-29 22:35:00,69.3,59.9,29.78,WNW,291,1.0,1.0,72,0.00,,,0.00,Wunderground v.1.13,2013-05-30 03:35:00,
2013-05-29 22:40:00,69.3,60.3,29.80,WNW,291,0.0,13.0,73,0.00,,,0.00,Wunderground v.1.13,2013-05-30 03:40:00,
2013-05-29 22:50:00,69.3,60.3,29.80,WNW,291,0.0,13.0,73,0.00,,,0.00,Wunderground v.1.13,2013-05-30 03:50:00,
2013-05-29 22:55:00,69.3,60.3,29.79,WNW,291,0.0,13.0,73,0.00,,,0.00,Wunderground v.1.13,2013-05-30 03:55:00,
2013-05-29 23:05:00,69.1,60.1,29.79,WNW,288,2.0,9.0,73,0.00,,,0.00,Wunderground v.1.13,2013-05-30 04:05:00,
2013-05-29 23:10:00,69.1,60.1,29.79,WNW,290,2.0,2.0,73,0.00,,,0.00,Wunderground v.1.13,2013-05-30 04:10:00,
2013-05-29 23:15:00,68.9,59.9,29.79,NNW,327,1.0,1.0,73,0.00,,,0.00,Wunderground v.1.13,2013-05-30 04:15:00,
2013-05-29 23:20:00,68.8,60.2,29.79,NNW,327,1.0,1.0,74,0.00,,,0.00,Wunderground v.1.13,2013-05-30 04:20:00,
2013-05-29 23:25:00,68.6,60.7,29.80,NNW,327,0.0,9.0,76,0.00,,,0.00,Wunderground v.1.13,2013-05-30 04:25:00,
2013-05-29 23:30:00,68.3,60.4,29.80,NNW,327,0.0,9.0,76,0.00,,,0.00,Wunderground v.1.13,2013-05-30 04:30:00,
2013-05-29 23:40:00,67.8,60.7,29.79,NNW,327,0.0,8.0,78,0.00,,,0.00,Wunderground v.1.13,2013-05-30 04:40:00,
2013-05-29 23:45:00,67.6,60.5,29.79,NNW,327,0.0,8.0,78,0.00,,,0.00,Wunderground v.1.13,2013-05-30 04:45:00,
2013-05-29 23:50:00,67.4,60.7,29.79,NNW,327,0.0,8.0,79,0.00,,,0.00,Wunderground v.1.13,2013-05-30 04:50:00,